Weather History for Millinocket, ME

Change the Weather History Date:

Friday, June 14, 2013

  Actual Average Record
Temperature  
Mean Temperature 63 °F 62 °F  
Max Temperature 76 °F 73 °F 92 °F (1949)
Min Temperature 50 °F 52 °F 35 °F (1944)
Degree Days  
Heating Degree Days 2 4  
Month to date heating degree days 66 80  
Since 1 June heating degree days 66 80  
Since 1 July heating degree days 7650 8370  
Cooling Degree Days 0 1  
Month to date cooling degree days 26 14  
Year to date cooling degree days 34 20  
Since 1 June cooling degree days 26 14  
Growing Degree Days 12 (Base 50)    
Moisture  
Dew Point 52 °F    
Average Humidity 67    
Maximum Humidity 96    
Minimum Humidity 38    
Precipitation  
Precipitation 0.08 in 0.14 in 1.42 in (1975)
Month to date precipitation 3.18 1.87  
Year to date precipitation 14.34 16.94  
Sea Level Pressure  
Sea Level Pressure 29.71 in    
Wind  
Wind Speed 2 mph (NNE)    
Max Wind Speed 21 mph    
Max Gust Speed 32 mph    
Visibility 10 miles    
Events Rain    
T = Trace of Precipitation, MM = Missing Value Source: NWS Daily Summary

Daily Weather History Graph

Daily Weather History Graph

Search for Another Location

Airport:

Trip Planner

Search our weather history database for the weather conditions in past years. The results will help you decide how hot, cold, wet, or windy it might be!

Date:

Astronomy

Jun. 14, 2013 Rise Set
Actual Time 4:44 AM EDT 8:25 PM EDT
Civil Twilight 4:06 AM EDT 9:03 PM EDT
Nautical Twilight 3:15 AM EDT 9:54 PM EDT
Astronomical Twilight 2:06 AM EDT 11:04 PM EDT
Moon 10:31 AM EDT (6/14) 11:43 PM EDT (6/14)
Length of Visible Light 16h 56m
Length of Day
15h 40m
Waxing Crescent, 30% of the Moon is Illuminated
Jun 14
Waxing Crescent
Jun 16
First Quarter
Jun 23
Full
Jun 30
Last Quarter
Jul 8
New

Hourly Weather History & Observations

Time (EDT) Temp. Dew Point Humidity Pressure Visibility Wind Dir Wind Speed Gust Speed Precip Events Conditions
12:53 AM 53.1 °F 50.0 °F 89% 29.76 in 10.0 mi Calm Calm - N/A   Clear
1:53 AM 52.0 °F 50.0 °F 93% 29.74 in 10.0 mi Calm Calm - N/A   Clear
2:53 AM 51.1 °F 48.9 °F 92% 29.72 in 10.0 mi Calm Calm - N/A   Clear
3:53 AM 51.1 °F 48.9 °F 92% 29.72 in 10.0 mi Calm Calm - N/A   Clear
4:53 AM 50.0 °F 48.9 °F 96% 29.73 in 10.0 mi Calm Calm - N/A   Clear
5:53 AM 52.0 °F 48.9 °F 89% 29.74 in 10.0 mi Calm Calm - N/A   Clear
6:53 AM 53.1 °F 50.0 °F 89% 29.73 in 10.0 mi Calm Calm - N/A   Scattered Clouds
7:53 AM 57.0 °F 52.0 °F 83% 29.72 in 10.0 mi Calm Calm - N/A   Partly Cloudy
8:53 AM 60.1 °F 52.0 °F 75% 29.72 in 10.0 mi Calm Calm - N/A   Clear
9:53 AM 64.9 °F 51.1 °F 61% 29.71 in 10.0 mi Calm Calm - N/A   Clear
10:53 AM 71.1 °F 51.1 °F 49% 29.70 in 10.0 mi Variable 3.5 mph - N/A   Clear
11:53 AM 71.1 °F 46.0 °F 41% 29.69 in 10.0 mi ENE 5.8 mph - N/A   Clear
12:53 PM 73.9 °F 46.0 °F 37% 29.68 in 10.0 mi East 5.8 mph - N/A   Mostly Cloudy
1:53 PM 75.0 °F 48.9 °F 40% 29.67 in 10.0 mi ESE 6.9 mph - N/A   Scattered Clouds
2:53 PM 73.0 °F 50.0 °F 44% 29.66 in 10.0 mi Variable 3.5 mph - N/A   Partly Cloudy
3:53 PM 73.9 °F 52.0 °F 46% 29.65 in 10.0 mi WSW 4.6 mph - N/A   Partly Cloudy
4:46 PM 62.6 °F 53.6 °F 72% 29.67 in 4.0 mi NW 12.7 mph 23.0 mph 0.07 in Rain Light Rain
4:53 PM 62.1 °F 53.1 °F 72% 29.68 in 10.0 mi WNW 9.2 mph 19.6 mph 0.07 in Rain Light Rain
5:53 PM 66.0 °F 54.0 °F 65% 29.69 in 10.0 mi Calm Calm - 0.01 in   Mostly Cloudy
6:53 PM 64.9 °F 57.9 °F 78% 29.68 in 10.0 mi Calm Calm - N/A   Partly Cloudy
7:53 PM 62.1 °F 57.9 °F 86% 29.70 in 10.0 mi Calm Calm - N/A   Clear
8:53 PM 61.0 °F 55.9 °F 83% 29.71 in 10.0 mi East 6.9 mph - N/A   Overcast
9:53 PM 57.9 °F 55.0 °F 90% 29.73 in 10.0 mi Calm Calm - N/A   Clear
10:53 PM 55.9 °F 53.1 °F 90% 29.73 in 10.0 mi Calm Calm - N/A   Partly Cloudy
11:53 PM 55.0 °F 53.1 °F 93% 29.74 in 9.0 mi NW 3.5 mph - N/A   Partly Cloudy